Location: Newark
(54.6833°N, 25.2833°E)
Time: 02:36:57
(UTC+00:00)

Altair - Pass Details

Date: 16 November 2019
Orbit: 1502 x 1682 km, 47.2° (Epoch: 09 December)

Event Time Altitude Azimuth Distance (km) Brightness Sun altitude
Rises 01:14:28 0° 200° (SSW) 4,632 - -39.0°
Reaches altitude 10° 01:18:10 10° 188° (S) 3,647 - -38.5°
Exits shadow 01:22:55 22° 158° (SSE) 2,796 8.8 -37.9°
Maximum altitude 01:25:02 25° 138° (SE) 2,692 8.8 -37.6°
Drops below altitude 10° 01:31:57 10° 89° (E) 3,683 10.2 -36.7°
Sets 01:35:42 0° 77° (ENE) 4,687 11.0 -36.2°
